[[{"header":{"parameterUnit":"m.s-1","parameterCategory":1,"la1":30.2991,"la2":30.254,"lo1":-89.0895,"lo2":-89.0444,"dy":0.0017,"dx":0.0017,"nx":28,"ny":28,"refTime":"2025-01-06T09:00:00:Z","depth":0,"parameterNumber":2,"parameterNumberName":"U-component_of_WINDS"},"data":[0,0,0,0,0,0,0,0,0,0,0,0,0,0,0,0,0,0,0,0,0,0,0,0,0,0,0,0,0,0,0,0,0,0,0,0,0,0,0,0,0,0,0,0,0,0,0,0,0,0,0,0,0,0,0,0,0,0,2.9628,2.9628,0,2.9593,2.9593,2.9592,2.9538,2.9537,2.9536,2.9535,2.9501,2.9501,2.95,0,0,0,0,0,0,0,0,0,0,0,0,0,2.965,2.965,2.9628,2.9628,2.9627,2.9593,2.9593,2.9592,2.9538,2.9537,2.9536,2.9535,2.9501,2.9501,2.95,0,0,0,0,0,0,0,0,0,0,0,0,0,2.9631,2.965,2.9628,2.9596,2.9593,2.9593,2.9593,2.9592,2.9539,2.9537,2.9536,2.9534,2.9501,2.9501,2.95,2.953,0,0,2.95,2.95,0,0,0,0,0,0,0,0,2.9632,2.963,2.9601,2.9599,2.9595,2.9569,2.9588,2.9571,2.9539,2.9559,2.9535,2.9534,2.9524,2.9522,2.9519,2.9528,2.9526,2.95,2.95,2.95,2.95,0,0,0,0,0,0,0,2.9633,2.9631,2.9614,2.9601,2.9597,2.9584,2.958,2.9584,2.9551,2.9557,2.9553,2.955,2.9522,2.9519,2.9518,2.9526,2.95,2.95,2.95,2.95,2.9558,2.956,0,0,0,0,0,0,2.9639,2.9632,2.9616,2.9613,2.961,2.9585,2.958,2.9579,2.955,2.9545,2.9551,2.9548,2.952,2.9518,2.9516,2.9549,2.95,2.95,2.95,2.9557,2.9559,2.956,0,0,0,0,0,0,2.964,2.9638,2.9617,2.9622,2.9618,2.9586,2.9585,2.9579,2.9575,2.9546,2.954,2.9554,2.9519,2.9516,2.9527,2.9547,2.95,2.95,2.9555,2.9557,2.9559,2.9615,0,0,0,0,0,0,2.9641,2.9639,2.9649,2.9622,2.9618,2.9628,2.9586,2.9579,2.9575,2.957,2.9547,2.9541,2.9517,2.9527,2.9527,2.9546,2.95,2.9553,2.9556,2.9559,2.9611,2.9618,2.9625,0,0,0,0,0,2.9642,2.9666,2.965,2.9648,2.963,2.9629,2.9626,2.9598,2.9577,2.9587,2.9569,2.9542,2.9545,2.9529,2.9528,2.9548,2.9552,2.9555,2.9559,2.9608,2.9617,2.9625,0,0,0,0,0,0,2.9695,2.9661,2.9643,2.9659,2.9648,2.962,2.9632,2.9609,2.9602,2.9598,2.9563,2.9559,2.9574,2.9562,2.9544,2.9575,2.9544,2.9548,2.9582,2.9591,2.9598,2.96,2.95,0,0,0,0,0,2.9709,2.971,2.9681,2.9698,2.9693,2.9664,2.9662,2.9641,2.9628,2.9622,2.9604,2.9592,2.959,2.959,2.9587,2.9609,2.9604,2.9622,2.963,2.9636,2.9639,2.9651,2.9659,2.9572,2.9572,2.9572,0,0,2.9737,2.9719,2.9722,2.9708,2.9697,2.9699,2.966,2.9664,2.9666,2.9623,2.9632,2.9618,2.9603,2.962,2.9626,2.961,2.9662,2.964,2.9645,2.9645,2.9655,2.9663,2.9671,2.9574,2.9574,2.9573,0,0,2.979,2.9776,2.9789,2.9778,2.9761,2.9742,2.9745,2.9721,2.9711,2.9719,2.9687,2.9689,2.9687,2.9677,2.9672,2.9723,2.9699,2.9723,2.976,2.9773,2.9779,2.9785,2.9804,2.9811,2.9727,2.9727,2.9727,0,2.9827,2.9829,2.9799,2.9805,2.9801,2.9763,2.9776,2.9767,2.975,2.9748,2.9731,2.9727,2.9714,2.9729,2.9741,2.9739,2.9742,2.9725,2.9781,2.9786,2.9791,2.9809,2.9816,2.973,2.973,2.9729,2.9729,0,2.9876,2.9879,2.9891,2.9876,2.9873,2.9883,2.9855,2.9856,2.9836,2.9819,2.9828,2.9812,2.9805,2.9807,2.9787,2.9819,2.9809,2.9787,2.9755,2.9803,2.9819,2.9825,2.9735,2.9733,2.9733,2.9732,0,0,2.996,2.9929,2.9934,2.9927,2.9906,2.9907,2.9917,2.991,2.9911,2.9901,2.9908,2.9908,2.9887,2.9882,2.9861,2.9872,2.9914,2.9848,2.9847,2.9861,2.9949,2.9966,2.9974,2.9898,2.9899,2.99,2.995,0,3.0008,3.0021,2.9995,3.0015,3.0017,2.9981,2.9989,2.9978,2.9963,2.9963,2.9946,2.9947,2.9919,2.9916,2.9925,2.9907,2.9931,2.9903,2.9905,2.9905,2.9909,2.9982,2.9999,3.0047,2.9956,2.9957,2.9958,0,3.0066,3.0059,3.0079,3.0058,3.0058,3.0065,3.0058,3.0058,3.0045,3.0033,3.0028,3.0004,3.0012,2.9983,2.9994,2.9976,2.9975,2.9967,2.9968,2.9967,2.9934,2.9982,3.0061,3.0069,2.9967,2.9966,2.9966,0,3.0125,3.0121,3.0133,3.0128,3.0103,3.011,3.01,3.0086,3.0084,3.0077,3.0076,3.0071,3.0068,3.0065,3.0041,3.0021,3.0055,3.0024,3.0046,3.0047,3.0054,3.0054,3.0134,3.0055,3.0055,3.0054,3.0054,0,3.0182,3.0195,3.0159,3.0166,3.0181,3.0151,3.0167,3.0154,3.0141,3.0146,3.0115,3.012,3.0088,3.009,3.0071,3.0084,3.0083,3.0074,3.0069,3.0076,3.0078,3.0075,3.0071,3.0056,3.0056,3.0056,3.0055,0,3.025,3.0226,3.0236,3.0213,3.0208,3.0219,3.02,3.0206,3.0189,3.0195,3.0195,3.0169,3.017,3.0146,3.0142,3.0129,3.015,3.0139,3.0154,3.0151,3.0175,3.0173,3.0255,3.0265,3.018,3.0181,3.0182,0,3.0287,3.0296,3.0274,3.0275,3.0267,3.0269,3.0267,3.0239,3.0238,3.0225,3.0233,3.0231,3.0228,3.0231,3.0212,3.0209,3.0198,3.0227,3.0197,3.0205,3.0198,3.0198,3.0199,3.0233,3.0234,3.0235,3.0236,0,3.0355,3.0343,3.0341,3.0336,3.0335,3.0329,3.0322,3.0324,3.0294,3.0295,3.0295,3.0293,3.0289,3.0288,3.0282,3.0273,3.025,3.0246,3.0251,3.0258,3.0267,3.0263,3.0171,3.0244,3.0243,3.0242,3.0242,3.0242,3.0408,3.0416,3.0402,3.0401,3.0393,3.0387,3.0392,3.0376,3.0376,3.037,3.0354,3.0358,3.0346,3.0335,3.0328,3.0331,3.0316,3.0324,3.0325,3.0328,3.0332,3.0267,3.033,3.033,3.0329,3.0329,3.0329,0,3.0475,3.0465,3.0465,3.0455,3.0455,3.0434,3.0425,3.0426,3.043,3.0421,3.0419,3.042,3.0419,3.0401,3.0398,3.0404,3.0394,3.0404,3.0403,3.0402,3.0345,3.0341,3.0413,3.0413,3.0413,3.0413,3.0413,3.0413,3.051,3.0521,3.0508,3.0515,3.0505,3.0508,3.0505,3.05,3.0492,3.0495,3.0494,3.0483,3.047,3.0467,3.0465,3.046,3.046,3.0475,3.0466,3.0414,3.0405,3.0398,3.0394,3.0475,3.0475,3.0522,3.0523,3.0523]},{"header":{"parameterUnit":"m.s-1","parameterCategory":1,"la1":30.2991,"la2":30.254,"lo1":-89.0895,"lo2":-89.0444,"dy":0.0017,"dx":0.0017,"nx":28,"ny":28,"refTime":"2025-01-06T09:00:00:Z","depth":0,"parameterNumber":3,"parameterNumberName":"V-component_of_WINDS"},"data":[0,0,0,0,0,0,0,0,0,0,0,0,0,0,0,0,0,0,0,0,0,0,0,0,0,0,0,0,0,0,0,0,0,0,0,0,0,0,0,0,0,0,0,0,0,0,0,0,0,0,0,0,0,0,0,0,0,0,5.6217,5.622,0,5.6502,5.6505,5.6509,5.655,5.6547,5.6545,5.6542,5.6833,5.6843,5.6853,0,0,0,0,0,0,0,0,0,0,0,0,0,5.5706,5.5715,5.6217,5.622,5.6224,5.6502,5.6506,5.651,5.655,5.6547,5.6544,5.6541,5.683,5.6842,5.6854,0,0,0,0,0,0,0,0,0,0,0,0,0,5.5953,5.5718,5.6216,5.6278,5.6286,5.6501,5.6506,5.6511,5.6551,5.6547,5.6543,5.6539,5.6826,5.6841,5.6856,5.7029,0,0,5.6903,5.6909,0,0,0,0,0,0,0,0,5.5939,5.5972,5.6265,5.6274,5.6284,5.6487,5.6432,5.6684,5.6552,5.645,5.6542,5.6538,5.6721,5.6745,5.6807,5.7042,5.7055,5.6904,5.6913,5.692,5.6924,0,0,0,0,0,0,0,5.5922,5.596,5.633,5.6269,5.6281,5.6291,5.6322,5.648,5.6604,5.6459,5.6463,5.6496,5.6725,5.6792,5.6814,5.7059,5.6904,5.6917,5.6927,5.6933,5.7451,5.7456,0,0,0,0,0,0,5.5894,5.5945,5.6321,5.6338,5.6098,5.6303,5.6338,5.6425,5.6603,5.6626,5.6499,5.6497,5.6768,5.6796,5.6824,5.704,5.692,5.6934,5.6943,5.7447,5.7452,5.7457,0,0,0,0,0,0,5.5883,5.5927,5.6309,5.6143,5.6192,5.6316,5.6414,5.6433,5.65,5.6633,5.6655,5.6545,5.6766,5.6803,5.6978,5.705,5.6941,5.6955,5.7441,5.7449,5.7455,5.7471,0,0,0,0,0,0,5.5868,5.5923,5.599,5.6144,5.6201,5.6459,5.6419,5.6441,5.6526,5.6526,5.6681,5.6703,5.6766,5.6955,5.6993,5.7069,5.6967,5.7436,5.7445,5.7453,5.7464,5.7477,5.7489,0,0,0,0,0,5.585,5.5983,5.5993,5.6038,5.6288,5.6463,5.6495,5.6564,5.6532,5.6601,5.6686,5.6698,5.7035,5.6972,5.7016,5.7098,5.7431,5.7442,5.7452,5.7459,5.7475,5.7488,0,0,0,0,0,0,5.5834,5.6004,5.6018,5.6205,5.6319,5.6469,5.6558,5.6579,5.6704,5.6699,5.6779,5.6813,5.6985,5.7058,5.6985,5.7275,5.7231,5.725,5.7221,5.7237,5.7249,5.7229,5.6979,0,0,0,0,0,5.5852,5.598,5.6122,5.6273,5.633,5.6434,5.6512,5.6556,5.6677,5.6726,5.6824,5.6941,5.7073,5.7159,5.7288,5.7474,5.7509,5.7552,5.7564,5.7573,5.759,5.7695,5.7716,5.7492,5.7491,5.7491,0,0,5.5892,5.6,5.6076,5.6273,5.6366,5.6497,5.6474,5.6613,5.6711,5.6747,5.6919,5.6994,5.713,5.7312,5.7397,5.7378,5.7659,5.7586,5.7592,5.7605,5.7708,5.7729,5.7747,5.7499,5.7497,5.7496,0,0,5.6031,5.6125,5.6263,5.6356,5.6498,5.6567,5.6599,5.6747,5.6799,5.6972,5.7002,5.7118,5.7344,5.744,5.7518,5.7692,5.7709,5.7732,5.7796,5.7897,5.7915,5.7931,5.7995,5.8016,5.7747,5.7747,5.7747,0,5.6062,5.6261,5.633,5.6469,5.6555,5.6592,5.6732,5.6819,5.6996,5.7054,5.7031,5.7315,5.7409,5.7615,5.7657,5.7718,5.7759,5.7716,5.7907,5.7924,5.794,5.8001,5.8025,5.7749,5.7749,5.7749,5.7749,0,5.6292,5.6429,5.6523,5.6693,5.6789,5.6927,5.7018,5.7106,5.7141,5.7211,5.7387,5.7501,5.7654,5.7705,5.774,5.7916,5.79,5.789,5.7848,5.7962,5.8021,5.8045,5.7752,5.7752,5.7751,5.775,0,0,5.6432,5.6639,5.6672,5.675,5.6909,5.7016,5.7155,5.7305,5.738,5.7499,5.7619,5.7809,5.7801,5.789,5.7935,5.8024,5.8156,5.8004,5.8008,5.803,5.8358,5.8366,5.8393,5.8167,5.8171,5.8175,5.8348,0,5.6592,5.6843,5.6909,5.7122,5.725,5.7287,5.7408,5.7518,5.7587,5.7705,5.7781,5.7915,5.7894,5.7948,5.8037,5.8121,5.8223,5.8109,5.828,5.8285,5.8248,5.8424,5.8433,5.8591,5.8371,5.8375,5.8378,0,5.6812,5.6937,5.7163,5.7305,5.7361,5.747,5.7613,5.7725,5.785,5.7894,5.7992,5.8029,5.8175,5.8123,5.8326,5.8247,5.832,5.8372,5.8379,5.84,5.834,5.8451,5.8642,5.8667,5.8415,5.8412,5.8409,0,5.6894,5.7118,5.7283,5.7348,5.7518,5.7593,5.7667,5.7788,5.7874,5.7998,5.8055,5.8194,5.8271,5.8377,5.8451,5.8405,5.8648,5.8602,5.869,5.8688,5.8742,5.8738,5.8949,5.8784,5.8783,5.8783,5.8783,0,5.7067,5.7204,5.7322,5.7424,5.7579,5.7652,5.7804,5.7878,5.7986,5.8103,5.8141,5.8249,5.8338,5.8458,5.8516,5.8676,5.871,5.875,5.8764,5.8749,5.8744,5.88,5.8792,5.8789,5.8788,5.8787,5.8786,0,5.7186,5.727,5.7453,5.7598,5.7637,5.7745,5.787,5.7969,5.8038,5.8185,5.8224,5.8333,5.8476,5.8559,5.8739,5.8778,5.8957,5.8965,5.8915,5.8922,5.9006,5.8998,5.9264,5.9303,5.9108,5.911,5.9111,0,5.7292,5.7399,5.7556,5.7637,5.7712,5.7842,5.793,5.8006,5.8096,5.8246,5.8328,5.8473,5.8595,5.8822,5.8917,5.9055,5.9068,5.9151,5.9089,5.907,5.9072,5.9066,5.9078,5.9163,5.9165,5.9166,5.9167,0,5.7473,5.7509,5.7635,5.7775,5.7879,5.7993,5.8106,5.817,5.8265,5.8364,5.8511,5.8605,5.8789,5.8934,5.908,5.9156,5.9178,5.9185,5.9214,5.92,5.9168,5.9189,5.8947,5.918,5.9179,5.9178,5.9177,5.9176,5.7591,5.7688,5.7813,5.7952,5.8045,5.815,5.8251,5.8333,5.8457,5.8614,5.865,5.8806,5.8927,5.9126,5.9205,5.9327,5.9313,5.9353,5.9364,5.9373,5.9377,5.9146,5.9354,5.9353,5.9353,5.9353,5.9353,0,5.7775,5.7857,5.7984,5.8142,5.8251,5.8261,5.8386,5.8477,5.8614,5.8725,5.8844,5.9013,5.9153,5.9258,5.9402,5.9479,5.9493,5.9515,5.9511,5.9529,5.9381,5.9343,5.9501,5.9501,5.9501,5.9501,5.9501,5.9501,5.7884,5.8049,5.81,5.8311,5.8393,5.8546,5.8617,5.8714,5.8804,5.8991,5.9108,5.9176,5.9285,5.9437,5.9565,5.9593,5.9645,5.9665,5.9694,5.9555,5.9539,5.9524,5.9489,5.9675,5.9675,5.9832,5.9834,5.9835]}]]